Location: Buena Vista Beach
(41.8098°N, 81.1279°W)
Time: 17:55:14
(UTC+00:00)

FengYun 1-2 T - Pass Details

Date: 29 October 2020
Orbit: 846 x 882 km, 98.7° (Epoch: 28 November)

Event Time Altitude Azimuth Distance (km) Brightness Sun altitude
Rises 22:55:54 0° 157° (SSE) 3,467 7.3 -6.9°
Reaches altitude 10° 22:58:18 10° 156° (SSE) 2,531 6.6 -7.4°
Maximum altitude 23:03:54 70° 73° (ENE) 932 4.3 -8.4°
Drops below altitude 10° 23:09:30 10° 351° (N) 2,533 6.7 -9.4°
Sets 23:11:54 0° 349° (N) 3,470 7.4 -9.9°
